Tracking 19817 objects as of 19-Aug-2019
HD Live streaming from Space Station
objects crossing your sky now

COSMOS 2251 DEB

Track COSMOS 2251 DEB now!
10-day predictions


NORAD ID: 35730
Int'l Code: 1993-036ARB
Perigee: 513.2 km
Apogee: 540.2 km
Inclination: 74.0 °
Period: 95.0 minutes
Semi major axis: 6897 km
RCS: 0.0122 m2 (small)
Launch date: June 16, 1993
Source: Commonwealth of Independent States (former USSR) (CIS)
Launch site: PLESETSK MISSILE AND SPACE COMPLEX (PKMTR)

Note: This is SATELLITE DEBRIS
aabbcc
Your satellite tracking list
Your tracking list is empty




NASA's NSSDC Master Catalog

Two Line Element Set (TLE):
1 35730U 93036ARB 19230.39387180 +.00004162 +00000-0 +22135-3 0  9992
2 35730 073.9977 022.6469 0019521 038.3278 321.9300 15.15464103555823
Source of the keplerian elements: AFSPC